Printer-friendly version

IAU Minor Planet Center

Minor Planet Center

MPEC 2007-B34 : 2006 BE55

The following Minor Planet Electronic Circular may be linked-to from your own Web pages, but must not otherwise be redistributed electronically.


Read MPEC 2007-B33 Read MPEC 2007-B35


M.P.E.C. 2007-B34                                Issued 2007 Jan. 23, 12:26 UT

     The Minor Planet Electronic Circulars contain information on unusual
         minor planets and routine data on comets.  They are published
   on behalf of Commission 20 of the International Astronomical Union by the
          Minor Planet Center, Smithsonian Astrophysical Observatory,
                          Cambridge, MA 02138, U.S.A.

             Prepared using the Tamkin Foundation Computer Network

                              MPC@CFA.HARVARD.EDU
          URL http://cfa-www.harvard.edu/iau/mpc.html  ISSN 1523-6714

                                   2006 BE55

                           Revision to MPEC 2006-B70

Additional Observations:
     K06B55E 2C2006 11 29.41191303 57 43.772+15 17 24.72         22.5 R EB034568
     K06B55E 2C2006 11 29.41911503 57 42.701+15 17 22.42         22.9 R EB034568
     K06B55E 2C2006 12 25.42451603 11 55.170+13 51 41.73         23.4 R EB034568
     K06B55E 2C2006 12 25.43379303 11 54.603+13 51 41.31         23.4 R EB034568

Observer details:
568 Mauna Kea.  Observer F. Bernardi.  Measurers F. Bernardi, D. J. Tholen.
    2.24-m University of Hawaii reflector + 2048 CCD.

First and last observations above in comparison with prediction:
Residuals in seconds of arc, reference and Delta-T
061129 568 19.1+  4.9+    061225 568 13.1+  4.4+    MPO 98100   -0.018 day

Orbital elements:
2006 BE55                                           PHA, Earth MOID = 0.0237 AU
Epoch 2007 Apr. 10.0 TT = JDT 2454200.5                 MPC
M 262.66382              (2000.0)            P               Q
n   0.75326132     Peri.  125.84872     -0.31512454     +0.94842959
a   1.1962968      Node   125.74742     -0.88380279     -0.28009084
e   0.4247639      Incl.    2.42356     -0.34581664     -0.14842655
P   1.31           H   21.9           G   0.15           U   3
Residuals in seconds of arc
060126 691  0.1-  0.1-    060128 G96  0.2-  0.4-    060207 G96  0.3-  0.1+
060126 691  0.1+  0.0     060128 G96  0.4-  0.5-    060208 703 (2.6-  0.5-)
060126 691  0.0   0.0     060128 G96  0.1-  0.3-    060208 703  0.6-  0.2+
060126 G96  0.2-  0.3-    060128 G96  0.1-  0.8-    060208 703  0.4+  0.1-
060126 G96  0.5-  0.3-    060128 291  0.3-  0.6+    060208 703  0.9+  0.4-
060126 G96  0.3-  0.5-    060128 291  0.2-  0.6+    060212 448  0.2+  0.3-
060126 G96  0.4+  0.1-    060128 291  0.1-  0.3+    060212 448  0.0   0.3-
060126 291  0.4+  0.3+    060128 474  0.4+  0.1-    060212 448  0.2-  0.2-
060126 291  0.1-  0.3+    060128 474  0.4+  0.4-    060219 A13 (3.3+  0.1+)
060126 291  0.1+  0.1+    060128 474  0.1+  0.2-    060219 A13 (3.1+  0.0 )
060126 G96  0.4-  0.1-    060130 734 (1.9+  2.1+)   060219 A13 (3.1+  0.4+)
060126 G96  0.0   0.3-    060130 734 (1.6-  1.1-)   060219 A13 (3.2+  0.1-)
060126 G96  0.3-  0.0     060131 734  0.2+  0.4+    060219 A13 (3.2+  0.3+)
060126 G96  0.2-  0.2-    060131 734  0.7-  0.9-    060219 A13 (2.9+  0.3+)
060126 246 (0.4+  1.9+)   060131 734  0.0   0.4-    060223 G77  0.1+  0.4-
060127 246  1.4-  0.6+    060131 691  0.2+  0.2-    060223 G77  0.4+  0.7-
060127 246 (2.0+  0.9-)   060131 691  0.2+  0.0     060223 G77  0.4+  0.0
060127 854  1.4-  0.2-    060131 691  0.5+  0.2+    060223 G77  1.3+  0.0
060127 854 (1.6+  0.0 )   060202 G96  0.3-  0.4-    060225 941  0.5-  0.0
060127 854  0.0   0.0     060202 G96  0.6-  0.2-    060225 941  0.3-  0.2+
060127 291  0.6-  0.3-    060202 G96  0.2-  0.2-    060225 941  0.3-  0.0
060127 291  0.1+  0.3+    060202 G96  0.4-  0.2-    060228 734  0.8+  1.1+
060127 291  0.0   0.3+    060204 448  0.1-  0.1-    060228 734  0.9-  0.8-
060127 474  0.5-  0.3+    060204 448  0.3-  0.1-    060228 734  0.5-  0.3+
060127 474  0.1+  0.3-    060204 448  0.2-  0.0     061129 568  0.1-  0.0
060127 474  0.2-  0.3+    060207 G96  0.0   0.0     061129 568  0.1-  0.0
060127 474  0.3-  0.1-    060207 G96  0.1-  0.1-    061225 568  0.1+  0.0
060127 474  1.1+  0.1+    060207 G96  0.5-  0.0     061225 568  0.2+  0.0

Ephemeris:
2006 BE55                a,e,i = 1.20, 0.42, 2                   q = 0.6882
Date    TT    R. A. (2000) Decl.     Delta      r     Elong.  Phase     V
2007 01 20    03 05.48   +14 42.6    1.090    1.685   108.6    33.6    24.6
2007 01 25    03 07.88   +15 05.1    1.139    1.678   104.2    34.7    24.7
2007 01 30    03 11.23   +15 30.4    1.188    1.670   100.0    35.5    24.8
2007 02 04    03 15.42   +15 58.0    1.237    1.661    96.0    36.2    24.9
2007 02 09    03 20.39   +16 27.4    1.285    1.651    92.3    36.7    25.0
2007 02 14    03 26.06   +16 58.1    1.332    1.639    88.6    37.0    25.1
2007 02 19    03 32.39   +17 29.8    1.378    1.627    85.2    37.3    25.2
2007 02 24    03 39.32   +18 02.1    1.421    1.613    81.9    37.4    25.2
2007 03 01    03 46.81   +18 34.5    1.463    1.599    78.7    37.4    25.3
2007 03 06    03 54.83   +19 06.8    1.503    1.583    75.7    37.4    25.3
2007 03 11    04 03.33   +19 38.6    1.540    1.566    72.7    37.3    25.3

Timothy B. Spahr             (C) Copyright 2007 MPC           M.P.E.C. 2007-B34

Read MPEC 2007-B33 Read MPEC 2007-B35


Our Web policy. Index to the CBAT/MPC/ICQ pages.


Valid HTML 4.01!